Погода в Ленинауле

Россия / Республика Дагестан     43°05′42″N   46°34′25″E
темп.,
°C
ветер,
м/с
пор.,
м/с
влажн.,
%
обл.,
%
осадки,
мм/ч
давл.,
гПа
погр.,
м
25 июня, сб
сб2500:00+14ю22865 0.3 100914
03:00+13ююз118998 0.3 101013
06:00+15ссз118026 0.0 101086
09:00+19ссв326450 0.0 1010921
12:00+21ссв326395 0.1 10101131
15:00+20св326797 0.3 10091000
18:00+18ссв2284100 0.3 1010293
21:00+16ю0192100 0.6 101039
26 июня, вс
вс2600:00+15ююз1194100 0.0 101014
03:00+14ююз1193100 2.3 100925
06:00+15ссв1191100 0.0 101071
09:00+17ссв2288100 0.1 1009457
12:00+20ссв227093 0.1 1009845
15:00+19ссз2268100 0.4 1009989
18:00+18зюз1278100 0.3 1009158
21:00+16зюз1182100 0.4 101111
27 июня, пн
пн2700:00+15ююз2287100 0.0 101125
03:00+14юз22872 0.0 101116
06:00+15зюз238618 0.0 1012178
09:00+21сз32633 0.0 1011847
12:00+22ссз435992 0.1 10121372
15:00+20сз227499 0.3 1012937
18:00+18ю019176 0.5 101252
21:00+16ю219364 0.5 101413
28 июня, вт
вт2800:00+16ю0189100 0.0 101311
03:00+15юз229389 0.0 101217
06:00+16сз11873 0.0 1012107
09:00+20ссз22530 0.0 1011784
12:00+23с33430 0.0 10101363
15:00+25с333864 0.0 10102143
18:00+20св34599 0.1 1012445
21:00+14ю328694 1.1 101528
29 июня, ср
ср2900:00+14ю2278100 0.0 101417
03:00+14ю32734 0.0 101427
06:00+17ююз11654 0.0 101452
09:00+21с22485 0.0 10131181
12:00+22ссв224467 0.0 10131734
15:00+20ссв345985 0.1 1013964
18:00+19всв3475100 0.2 1013471
21:00+16ююв1191100 0.6 101418